Regional Weather Roundup
Issued by NWS

Home | Current Version | Previous Version | Graphics & Text | Print | Product List | Glossary On
Versions: 1 2 3 4 5 6 7 8 9 10 11 12 13 14 15 16 17 18 19 20 21 22 23 24 25 26 27
000
ASUS45 KTFX 181410
RWRMT
MONTANA REGIONAL WEATHER ROUNDUP
NATIONAL WEATHER SERVICE GREAT FALLS MT
700 AM MST WED JAN 18 2017

NOTE: "FAIR" INDICATES FEW OR NO CLOUDS BELOW 12000 FEET WITH NO
SIGNIFICANT WEATHER AND/OR OBSTRUCTIONS TO VISIBILITY.

MTZ001>007-043-181500-
WEST OF THE DIVIDE

CITY           SKY/WX    TMP DP  RH WIND       PRES   REMARKS
KALISPELL      CLOUDY    23  20  88 CALM      29.75S
MISSOULA       CLOUDY    19  14  81 N3        29.81F
BUTTE          CLOUDY    17  11  77 NW5       29.82S
MULLAN PASS    MIX PCPN  28  27  96 VRB5      29.66F VSB 1/4
ANACONDA         N/A     36  16  44 S21G32    29.76S WCI  24
DEER LODGE       N/A     36  21  55 S14       29.76F WCI  27
EUREKA           N/A     27  25  93 CALM      29.69F
HAMILTON         N/A     19  12  73 CALM      29.78F
PLAINS           N/A     21  14  74 CALM      29.78F
RONAN            N/A     19  15  84 CALM      29.79F
$$

MTZ008-052>055-181500-
SOUTHWEST MONTANA

CITY           SKY/WX    TMP DP  RH WIND       PRES   REMARKS
BOZEMAN        CLOUDY     5   1  83 CALM      29.83F
DILLON         CLOUDY    28  11  48 S12       29.86F WCI  18
W YELLOWSTONE  HAZE     -13 -18  77 CALM      30.07F VSB 1/2
ENNIS          CLEAR     27  14  59 S30G36    29.92R WCI  10
TWIN BRIDGES     N/A     26  11  53 SE14      29.86F WCI  14
$$

MTZ009-010-012-014-046-048-049-054-181500-
EAST SLOPES AND CENTRAL MONTANA

CITY           SKY/WX    TMP DP  RH WIND       PRES   REMARKS
CUT BANK       PTCLDY    44  31  60 SW17G36   29.53F
GREAT FALLS    CLOUDY    42  23  46 S7        29.59F
MALMSTROM AFB  CLOUDY    42  27  54 SW30      29.59F
HELENA         CLOUDY    13   8  81 CALM      29.77S
AUGUSTA          N/A     39  23  53 S15       29.58F WCI  30
BOWMANS CRNR     N/A     33  22  64 S35       29.58S WCI  18
CHOTEAU          N/A     39  25  56 S20G28    29.57F WCI  30
CONRAD           N/A     37  29  73 S29       29.58F WCI  24
POWER            N/A     40  26  57 SW26      29.56S
RAYNESFORD       N/A     49  22  35 CALM      29.62R
ULM            MOCLDY    41  26  55 MISG      29.61F
$$

MTZ011-013-016-021-045-047-050-051-181500-
NORTH CENTRAL MONTANA

CITY           SKY/WX    TMP DP  RH WIND       PRES   REMARKS
HAVRE          CLOUDY    37  30  75 SW15      29.53R WCI  28
LEWISTOWN      CLOUDY    42  27  55 SW22      29.65F
N BAR RANCH      N/A     48  25  40 SW10      29.67F
CHINOOK          N/A     36  27  69 CALM      29.52F
DENTON           N/A     40  28  62 SW14      29.59S
FORT BENTON      N/A     46  27  46 MISG      29.57F
GEYSER           N/A     44  26  50 SW10      29.61S
GRASS RANGE      N/A     53  24  31 W12G20    29.60F
JUDITH GAP       N/A     42  20  40 S8        29.71S
ROY              N/A     52  29  40 MISG      29.59F
STANFORD         N/A     42  24  48 SW13      29.63F
WINIFRED         N/A     44  28  54 CALM      29.60F
$$

MTZ017>020-022>027-061-062-181500-
NORTHEAST MONTANA

CITY           SKY/WX    TMP DP  RH WIND       PRES   REMARKS
GLASGOW        CLOUDY    24  20  84 SE9       29.58S WCI  14
JORDAN           N/A     43  25  49 SW15      29.61F
SIDNEY         CLOUDY    29  22  75 S16       29.69F WCI  17
WOLF POINT     CLOUDY    14  10  84 E3        29.63F
PLENTYWOOD       N/A     27  23  86 E10       29.61F WCI  17
POPLAR           N/A     30  21  69 S7        29.64S WCI  23
SCOBEY           N/A     33  22  64 SE10      29.59F WCI  25
$$

MTZ028>42-056>058-181500-
SOUTHCENTRAL AND SOUTHEAST MONTANA

CITY           SKY/WX    TMP DP  RH WIND       PRES   REMARKS
BAKER          CLOUDY    37  21  52 CALM      29.73S
BILLINGS       CLOUDY    37  18  46 SW20      29.72F WCI  27
LIVINGSTON     CLOUDY    43  10  26 SW33G51   29.74F
MILES CITY     CLOUDY    21  14  74 S6        29.73F WCI  13
BIG TIMBER     CLEAR     37  12  35 W17       29.78S WCI  28
EKALAKA          N/A     46  21  37 W5        29.75
FORSYTH          N/A     25  18  74 CALM      29.72F
HARLOWTON        N/A     29  19  66 W15       29.71F WCI  18
LAUREL           N/A     35  19  52 SW20      29.73F WCI  24
$$

REGIONAL REPORTS...DAKOTAS

CITY           SKY/WX    TMP DP  RH WIND       PRES   REMARKS
WILLISTON      CLOUDY    24  20  84 SW3       29.67F
MINOT          CLOUDY    34  26  72 SW12      29.66S WCI  25
DICKINSON      CLOUDY    33  21  61 SW9       29.70R WCI  25
BEACH            N/A     36  23  60 SW18      29.72F WCI  25
CROSBY           N/A     28  25  86 S21       29.63F WCI  15
TIOGA            N/A     32  27  80 W10       29.66F WCI  24
WATFORD CITY     N/A     28  23  80 W3        29.69S
BISMARCK       CLOUDY    18  12  77 NE8       29.76S WCI   8
GRAND FORKS    CLOUDY    22  16  78 S10       29.71R WCI  11
FARGO          CLOUDY    20  16  84 S9        29.78R WCI   9
BUFFALO SD       N/A     35  21  56 W9        29.68F WCI  28
RAPID CITY     CLOUDY    26  18  71 CALM      29.77F
$$

REGIONAL REPORTS...WYOMING/IDAHO/WASHINGTON

CITY           SKY/WX    TMP DP  RH WIND       PRES   REMARKS
GILLETTE       CLOUDY    25  16  68 S3        29.81S
SHERIDAN       CLOUDY    18  12  77 S9        29.77F WCI   7
BUFFALO WY     CLEAR     34  15  46 CALM      29.78S
CODY           CLOUDY    12   6  77 S5        29.85F
YELLOWSTONE LA   N/A     -9 -13  83 CALM      30.05S
IDAHO FALLS    CLOUDY    -3  -5  90 N6        30.11F WCI -15
SALMON         CLOUDY    -4  -8  84 CALM      30.05F
BOISE          CLOUDY    16  11  80 S5        30.05F HAZE
SPOKANE        CLOUDY    35  33  92 SE10      29.65F WCI  27
$$

REGIONAL REPORTS...ALBERTA

CITY           SKY/WX    TMP DP  RH WIND       PRES   REMARKS
EDMONTON       CLEAR     32  23  69 S3        29.13F
CALGARY        PTCLDY    30  25  80 VRB2      29.28S
LETHBRIDGE     PTCLDY    37  30  75 VRB5      29.45S
MEDICINE HAT   MOCLDY    43  32  65 SW17G28   29.41F
WATERTON GATE    N/A     41  28  60 SW43G64     N/A
CARDSTON         N/A     45  28  53 SW8         N/A
MILK RIVER       N/A     41  32  70 SW26G33     N/A
$$

REGIONAL REPORTS...SASKATCHEWAN

CITY           SKY/WX    TMP DP  RH WIND       PRES   REMARKS
SWIFT CURRENT  MOCLDY    39  30  70 SW26      29.39F WCI  28
REGINA         PTCLDY    25  21  86 SE10      29.51F WCI  15
SASKATOON      MOCLDY    36  30  80 S18       29.37F WCI  25
ROCKGLEN         N/A     32  27  80 SW12        N/A  WCI  23
ASSINIBOIA       N/A     34  30  86 S6          N/A  WCI  29
$$




USA.gov is the U.S. government's official web portal to all federal, state and local government web resources and services.